iso_date,epoch_date,Year,Hour,Min,DOY,POS_DOY,Lat,Lon,BP,Ts,Ta,has_bp,has_ts,has_ta,BuoyID,Buoy_Type,Buoy_Owner,Logistics,Hemisphere
2017-06-01T12:00:00Z,1496318400,2017,12,0,152.5,152.5,80.46603,7.28778,1027.1,-999.00,-999.0,yes,no,no,300025060101040,IMB,AWI-USIABP,unknown,North
2017-06-01T13:00:28Z,1496322029,2017,13,0,152.542,152.542,80.49855,7.44662,1027.1,-999.00,-999.0,yes,no,no,300025060101040,IMB,AWI-USIABP,unknown,North
2017-06-01T13:59:31Z,1496325571,2017,14,0,152.583,152.583,80.53331,7.91247,1026.7,-999.00,-999.0,yes,no,no,300025060101040,IMB,AWI-USIABP,unknown,North
2017-06-01T15:00:00Z,1496329200,2017,15,0,152.625,152.625,80.53435,7.8944,1027.2,-999.00,-999.0,yes,no,no,300025060101040,IMB,AWI-USIABP,unknown,North
2017-06-01T16:00:28Z,1496332829,2017,16,0,152.667,152.667,80.53062,7.87619,1027.2,-999.00,-999.0,yes,no,no,300025060101040,IMB,AWI-USIABP,unknown,North
2017-06-01T16:59:31Z,1496336371,2017,17,0,152.708,152.708,80.52926,7.85514,1027.2,-999.00,-999.0,yes,no,no,300025060101040,IMB,AWI-USIABP,unknown,North
2017-06-01T18:00:00Z,1496340000,2017,18,0,152.75,152.75,80.60704,7.96138,1027.4,-999.00,-999.0,yes,no,no,300025060101040,IMB,AWI-USIABP,unknown,North
2017-06-01T19:00:28Z,1496343629,2017,19,0,152.792,152.792,80.61197,7.93948,1027.6,-999.00,-999.0,yes,no,no,300025060101040,IMB,AWI-USIABP,unknown,North
2017-06-01T19:59:31Z,1496347171,2017,20,0,152.833,152.833,80.61689,7.93918,1027.3,-999.00,-999.0,yes,no,no,300025060101040,IMB,AWI-USIABP,unknown,North
2017-06-01T21:00:00Z,1496350800,2017,21,0,152.875,152.875,80.6146,8.01125,1027.2,-999.00,-999.0,yes,no,no,300025060101040,IMB,AWI-USIABP,unknown,North
2017-06-01T22:00:28Z,1496354429,2017,22,0,152.917,152.917,80.63982,8.39849,1027.0,-999.00,-999.0,yes,no,no,300025060101040,IMB,AWI-USIABP,unknown,North
2017-06-01T22:59:31Z,1496357971,2017,23,0,152.958,152.958,80.71746,8.19652,1027.1,-999.00,-999.0,yes,no,no,300025060101040,IMB,AWI-USIABP,unknown,North
2017-06-02T00:00:00Z,1496361600,2017,0,0,153.0,153.0,80.78984,8.27624,1027.1,-999.00,-999.0,yes,no,no,300025060101040,IMB,AWI-USIABP,unknown,North
2017-06-02T01:59:31Z,1496368771,2017,2,0,153.083,153.083,80.89807,8.34682,1027.2,-999.00,-999.0,yes,no,no,300025060101040,IMB,AWI-USIABP,unknown,North
2017-06-02T03:00:00Z,1496372400,2017,3,0,153.125,153.125,80.96946,8.65308,1027.3,-999.00,-999.0,yes,no,no,300025060101040,IMB,AWI-USIABP,unknown,North
2017-06-02T04:00:28Z,1496376029,2017,4,0,153.167,153.167,81.02196,8.93723,1027.1,-999.00,-999.0,yes,no,no,300025060101040,IMB,AWI-USIABP,unknown,North
2017-06-02T04:59:31Z,1496379571,2017,5,0,153.208,153.208,81.08857,9.46267,1026.8,-999.00,-999.0,yes,no,no,300025060101040,IMB,AWI-USIABP,unknown,North
2017-06-02T06:00:00Z,1496383200,2017,6,0,153.25,153.25,81.19977,9.48266,1026.3,-999.00,-999.0,yes,no,no,300025060101040,IMB,AWI-USIABP,unknown,North
2017-06-02T07:59:31Z,1496390371,2017,8,0,153.333,153.333,81.2519,9.11859,1026.3,-999.00,-999.0,yes,no,no,300025060101040,IMB,AWI-USIABP,unknown,North
2017-06-02T09:00:00Z,1496394000,2017,9,0,153.375,153.375,81.26884,9.13322,1026.0,-999.00,-999.0,yes,no,no,300025060101040,IMB,AWI-USIABP,unknown,North
2017-06-02T10:00:28Z,1496397629,2017,10,0,153.417,153.417,81.27232,9.1815,1025.8,-999.00,-999.0,yes,no,no,300025060101040,IMB,AWI-USIABP,unknown,North
2017-06-02T12:00:00Z,1496404800,2017,12,0,153.5,153.5,81.28856,9.26353,1025.7,-999.00,-999.0,yes,no,no,300025060101040,IMB,AWI-USIABP,unknown,North
2017-06-02T13:00:28Z,1496408429,2017,13,0,153.542,153.542,81.28889,9.30346,1025.1,-999.00,-999.0,yes,no,no,300025060101040,IMB,AWI-USIABP,unknown,North
2017-06-02T13:59:31Z,1496411971,2017,14,0,153.583,153.583,81.29125,9.34818,1024.9,-999.00,-999.0,yes,no,no,300025060101040,IMB,AWI-USIABP,unknown,North
2017-06-02T15:00:00Z,1496415600,2017,15,0,153.625,153.625,81.29869,9.41105,1024.5,-999.00,-999.0,yes,no,no,300025060101040,IMB,AWI-USIABP,unknown,North
2017-06-02T16:00:28Z,1496419229,2017,16,0,153.667,153.667,81.35184,9.41902,1023.7,-999.00,-999.0,yes,no,no,300025060101040,IMB,AWI-USIABP,unknown,North
2017-06-02T18:00:00Z,1496426400,2017,18,0,153.75,153.75,81.4294,9.80492,1022.8,-999.00,-999.0,yes,no,no,300025060101040,IMB,AWI-USIABP,unknown,North
2017-06-02T19:00:28Z,1496430029,2017,19,0,153.792,153.792,81.48471,9.64469,1022.5,-999.00,-999.0,yes,no,no,300025060101040,IMB,AWI-USIABP,unknown,North
2017-06-02T19:59:31Z,1496433571,2017,20,0,153.833,153.833,81.53599,9.56509,1021.7,-999.00,-999.0,yes,no,no,300025060101040,IMB,AWI-USIABP,unknown,North
2017-06-02T21:00:00Z,1496437200,2017,21,0,153.875,153.875,81.55771,9.57159,1021.7,-999.00,-999.0,yes,no,no,300025060101040,IMB,AWI-USIABP,unknown,North
2017-06-02T22:00:28Z,1496440829,2017,22,0,153.917,153.917,81.57927,9.66645,1021.0,-999.00,-999.0,yes,no,no,300025060101040,IMB,AWI-USIABP,unknown,North
2017-06-02T22:59:31Z,1496444371,2017,23,0,153.958,153.958,81.63269,9.80283,1020.5,-999.00,-999.0,yes,no,no,300025060101040,IMB,AWI-USIABP,unknown,North
2017-06-03T01:00:28Z,1496451629,2017,1,0,154.042,154.042,81.73733,9.672,1019.5,-999.00,-999.0,yes,no,no,300025060101040,IMB,AWI-USIABP,unknown,North
2017-06-03T01:59:31Z,1496455171,2017,2,0,154.083,154.083,81.80065,9.81802,1019.3,-999.00,-999.0,yes,no,no,300025060101040,IMB,AWI-USIABP,unknown,North
2017-06-03T03:00:00Z,1496458800,2017,3,0,154.125,154.125,81.82864,9.94494,1019.0,-999.00,-999.0,yes,no,no,300025060101040,IMB,AWI-USIABP,unknown,North
2017-06-03T04:00:28Z,1496462429,2017,4,0,154.167,154.167,81.88899,10.0199,1018.5,-999.00,-999.0,yes,no,no,300025060101040,IMB,AWI-USIABP,unknown,North
2017-06-03T04:59:31Z,1496465971,2017,5,0,154.208,154.208,81.94325,10.09898,1018.3,-999.00,-999.0,yes,no,no,300025060101040,IMB,AWI-USIABP,unknown,North
2017-06-03T06:00:00Z,1496469600,2017,6,0,154.25,154.25,81.9611,10.16079,1018.2,-999.00,-999.0,yes,no,no,300025060101040,IMB,AWI-USIABP,unknown,North
2017-06-03T07:00:28Z,1496473229,2017,7,0,154.292,154.292,81.96048,10.20669,1018.4,-999.00,-999.0,yes,no,no,300025060101040,IMB,AWI-USIABP,unknown,North
2017-06-03T07:59:31Z,1496476771,2017,8,0,154.333,154.333,81.95835,10.24867,1018.6,-999.00,-999.0,yes,no,no,300025060101040,IMB,AWI-USIABP,unknown,North
2017-06-03T09:00:00Z,1496480400,2017,9,0,154.375,154.375,81.96461,10.22883,1018.7,-999.00,-999.0,yes,no,no,300025060101040,IMB,AWI-USIABP,unknown,North
2017-06-03T10:00:28Z,1496484029,2017,10,0,154.417,154.417,81.96233,10.2615,1018.8,-999.00,-999.0,yes,no,no,300025060101040,IMB,AWI-USIABP,unknown,North
2017-06-03T10:59:31Z,1496487571,2017,11,0,154.458,154.458,81.96016,10.28768,1018.8,-999.00,-999.0,yes,no,no,300025060101040,IMB,AWI-USIABP,unknown,North
2017-06-03T12:00:00Z,1496491200,2017,12,0,154.5,154.5,81.95776,10.30853,1019.1,-999.00,-999.0,yes,no,no,300025060101040,IMB,AWI-USIABP,unknown,North
2017-06-03T13:00:28Z,1496494829,2017,13,0,154.542,154.542,81.95514,10.32422,1019.3,-999.00,-999.0,yes,no,no,300025060101040,IMB,AWI-USIABP,unknown,North
2017-06-03T13:59:31Z,1496498371,2017,14,0,154.583,154.583,81.9524,10.33482,1019.6,-999.00,-999.0,yes,no,no,300025060101040,IMB,AWI-USIABP,unknown,North
2017-06-03T15:00:00Z,1496502000,2017,15,0,154.625,154.625,81.94916,10.33753,1019.5,-999.00,-999.0,yes,no,no,300025060101040,IMB,AWI-USIABP,unknown,North
2017-06-03T16:00:28Z,1496505629,2017,16,0,154.667,154.667,81.94571,10.33699,1019.8,-999.00,-999.0,yes,no,no,300025060101040,IMB,AWI-USIABP,unknown,North
2017-06-03T16:59:31Z,1496509171,2017,17,0,154.708,154.708,81.94187,10.33157,1019.8,-999.00,-999.0,yes,no,no,300025060101040,IMB,AWI-USIABP,unknown,North
2017-06-03T18:00:00Z,1496512800,2017,18,0,154.75,154.75,81.93838,10.32276,1020.0,-999.00,-999.0,yes,no,no,300025060101040,IMB,AWI-USIABP,unknown,North
2017-06-03T19:59:31Z,1496519971,2017,20,0,154.833,154.833,81.93395,10.29673,1020.1,-999.00,-999.0,yes,no,no,300025060101040,IMB,AWI-USIABP,unknown,North
2017-06-03T22:00:28Z,1496527229,2017,22,0,154.917,154.917,81.93325,10.27425,1020.6,-999.00,-999.0,yes,no,no,300025060101040,IMB,AWI-USIABP,unknown,North
2017-06-03T22:59:31Z,1496530771,2017,23,0,154.958,154.958,81.93485,10.26975,1020.4,-999.00,-999.0,yes,no,no,300025060101040,IMB,AWI-USIABP,unknown,North
2017-06-04T00:00:00Z,1496534400,2017,0,0,155.0,155.0,81.93706,10.27137,1020.5,-999.00,-999.0,yes,no,no,300025060101040,IMB,AWI-USIABP,unknown,North
2017-06-04T01:59:31Z,1496541571,2017,2,0,155.083,155.083,81.94235,10.29769,1020.8,-999.00,-999.0,yes,no,no,300025060101040,IMB,AWI-USIABP,unknown,North
2017-06-04T03:01:26Z,1496545286,2017,3,1,155.126,155.126,81.94462,10.32093,1021.0,-999.00,-999.0,yes,no,no,300025060101040,IMB,AWI-USIABP,unknown,North
2017-06-04T04:00:28Z,1496548829,2017,4,0,155.167,155.167,81.94637,10.34752,1021.3,-999.00,-999.0,yes,no,no,300025060101040,IMB,AWI-USIABP,unknown,North
2017-06-04T04:59:31Z,1496552371,2017,5,0,155.208,155.208,81.94763,10.37739,1021.1,-999.00,-999.0,yes,no,no,300025060101040,IMB,AWI-USIABP,unknown,North
2017-06-04T06:00:00Z,1496556000,2017,6,0,155.25,155.25,81.94874,10.40752,1021.1,-999.00,-999.0,yes,no,no,300025060101040,IMB,AWI-USIABP,unknown,North
2017-06-04T07:00:28Z,1496559629,2017,7,0,155.292,155.292,81.94974,10.43534,1021.1,-999.00,-999.0,yes,no,no,300025060101040,IMB,AWI-USIABP,unknown,North
2017-06-04T07:59:31Z,1496563171,2017,8,0,155.333,155.333,81.95034,10.46573,1021.1,-999.00,-999.0,yes,no,no,300025060101040,IMB,AWI-USIABP,unknown,North
2017-06-04T09:00:00Z,1496566800,2017,9,0,155.375,155.375,81.95147,10.49234,1021.1,-999.00,-999.0,yes,no,no,300025060101040,IMB,AWI-USIABP,unknown,North
2017-06-04T10:00:28Z,1496570429,2017,10,0,155.417,155.417,81.95264,10.51886,1021.1,-999.00,-999.0,yes,no,no,300025060101040,IMB,AWI-USIABP,unknown,North
2017-06-04T10:59:31Z,1496573971,2017,11,0,155.458,155.458,81.95297,10.54937,1020.9,-999.00,-999.0,yes,no,no,300025060101040,IMB,AWI-USIABP,unknown,North
2017-06-04T12:00:00Z,1496577600,2017,12,0,155.5,155.5,81.95384,10.57762,1020.9,-999.00,-999.0,yes,no,no,300025060101040,IMB,AWI-USIABP,unknown,North
2017-06-04T13:00:28Z,1496581229,2017,13,0,155.542,155.542,81.95385,10.60691,1020.6,-999.00,-999.0,yes,no,no,300025060101040,IMB,AWI-USIABP,unknown,North
2017-06-04T13:59:31Z,1496584771,2017,14,0,155.583,155.583,81.95312,10.63445,1020.5,-999.00,-999.0,yes,no,no,300025060101040,IMB,AWI-USIABP,unknown,North
2017-06-04T15:00:00Z,1496588400,2017,15,0,155.625,155.625,81.95184,10.66117,1020.2,-999.00,-999.0,yes,no,no,300025060101040,IMB,AWI-USIABP,unknown,North
2017-06-04T16:00:28Z,1496592029,2017,16,0,155.667,155.667,81.95007,10.6854,1020.4,-999.00,-999.0,yes,no,no,300025060101040,IMB,AWI-USIABP,unknown,North
2017-06-04T16:59:31Z,1496595571,2017,17,0,155.708,155.708,81.94773,10.7042,1020.6,-999.00,-999.0,yes,no,no,300025060101040,IMB,AWI-USIABP,unknown,North
2017-06-04T18:00:00Z,1496599200,2017,18,0,155.75,155.75,81.94505,10.71656,1020.5,-999.00,-999.0,yes,no,no,300025060101040,IMB,AWI-USIABP,unknown,North
2017-06-04T19:00:28Z,1496602829,2017,19,0,155.792,155.792,81.94236,10.72543,1020.3,-999.00,-999.0,yes,no,no,300025060101040,IMB,AWI-USIABP,unknown,North
2017-06-04T19:59:31Z,1496606371,2017,20,0,155.833,155.833,81.94012,10.72812,1019.9,-999.00,-999.0,yes,no,no,300025060101040,IMB,AWI-USIABP,unknown,North
2017-06-04T21:00:00Z,1496610000,2017,21,0,155.875,155.875,81.93866,10.73188,1020.0,-999.00,-999.0,yes,no,no,300025060101040,IMB,AWI-USIABP,unknown,North
2017-06-04T22:00:28Z,1496613629,2017,22,0,155.917,155.917,81.93828,10.7407,1019.9,-999.00,-999.0,yes,no,no,300025060101040,IMB,AWI-USIABP,unknown,North
2017-06-05T01:00:28Z,1496624429,2017,1,0,156.042,156.042,81.9409,10.78553,1020.0,-999.00,-999.0,yes,no,no,300025060101040,IMB,AWI-USIABP,unknown,North
2017-06-05T01:59:31Z,1496627971,2017,2,0,156.083,156.083,81.94239,10.80647,1020.1,-999.00,-999.0,yes,no,no,300025060101040,IMB,AWI-USIABP,unknown,North
2017-06-05T03:00:00Z,1496631600,2017,3,0,156.125,156.125,81.94363,10.8318,1020.0,-999.00,-999.0,yes,no,no,300025060101040,IMB,AWI-USIABP,unknown,North
2017-06-05T04:59:31Z,1496638771,2017,5,0,156.208,156.208,81.94269,10.88467,1020.6,-999.00,-999.0,yes,no,no,300025060101040,IMB,AWI-USIABP,unknown,North
2017-06-05T06:00:00Z,1496642400,2017,6,0,156.25,156.25,81.9416,10.90683,1020.8,-999.00,-999.0,yes,no,no,300025060101040,IMB,AWI-USIABP,unknown,North
2017-06-05T07:00:28Z,1496646029,2017,7,0,156.292,156.292,81.94005,10.92577,1021.3,-999.00,-999.0,yes,no,no,300025060101040,IMB,AWI-USIABP,unknown,North
2017-06-05T07:59:31Z,1496649571,2017,8,0,156.333,156.333,81.93824,10.93994,1021.5,-999.00,-999.0,yes,no,no,300025060101040,IMB,AWI-USIABP,unknown,North
2017-06-05T09:00:00Z,1496653200,2017,9,0,156.375,156.375,81.9359,10.95231,1021.7,-999.00,-999.0,yes,no,no,300025060101040,IMB,AWI-USIABP,unknown,North
2017-06-05T10:00:28Z,1496656829,2017,10,0,156.417,156.417,81.93444,10.95455,1021.8,-999.00,-999.0,yes,no,no,300025060101040,IMB,AWI-USIABP,unknown,North
2017-06-05T10:59:31Z,1496660371,2017,11,0,156.458,156.458,81.9331,10.95739,1022.1,-999.00,-999.0,yes,no,no,300025060101040,IMB,AWI-USIABP,unknown,North
2017-06-05T12:00:00Z,1496664000,2017,12,0,156.5,156.5,81.93196,10.96343,1022.0,-999.00,-999.0,yes,no,no,300025060101040,IMB,AWI-USIABP,unknown,North
2017-06-05T13:00:28Z,1496667629,2017,13,0,156.542,156.542,81.9318,10.96789,1021.9,-999.00,-999.0,yes,no,no,300025060101040,IMB,AWI-USIABP,unknown,North
2017-06-05T13:59:31Z,1496671171,2017,14,0,156.583,156.583,81.93199,10.97032,1021.7,-999.00,-999.0,yes,no,no,300025060101040,IMB,AWI-USIABP,unknown,North
2017-06-05T15:00:00Z,1496674800,2017,15,0,156.625,156.625,81.93156,10.97087,1021.9,-999.00,-999.0,yes,no,no,300025060101040,IMB,AWI-USIABP,unknown,North
2017-06-05T16:00:28Z,1496678429,2017,16,0,156.667,156.667,81.9313,10.96689,1022.1,-999.00,-999.0,yes,no,no,300025060101040,IMB,AWI-USIABP,unknown,North
2017-06-05T16:59:31Z,1496681971,2017,17,0,156.708,156.708,81.93033,10.96261,1021.8,-999.00,-999.0,yes,no,no,300025060101040,IMB,AWI-USIABP,unknown,North
2017-06-05T18:00:00Z,1496685600,2017,18,0,156.75,156.75,81.92915,10.95312,1021.6,-999.00,-999.0,yes,no,no,300025060101040,IMB,AWI-USIABP,unknown,North
2017-06-05T19:59:31Z,1496692771,2017,20,0,156.833,156.833,81.9272,10.92709,1021.9,-999.00,-999.0,yes,no,no,300025060101040,IMB,AWI-USIABP,unknown,North
2017-06-05T21:00:00Z,1496696400,2017,21,0,156.875,156.875,81.92715,10.91416,1021.9,-999.00,-999.0,yes,no,no,300025060101040,IMB,AWI-USIABP,unknown,North
2017-06-05T22:00:28Z,1496700029,2017,22,0,156.917,156.917,81.92785,10.9038,1021.7,-999.00,-999.0,yes,no,no,300025060101040,IMB,AWI-USIABP,unknown,North
2017-06-05T22:59:31Z,1496703571,2017,23,0,156.958,156.958,81.92976,10.89784,1021.8,-999.00,-999.0,yes,no,no,300025060101040,IMB,AWI-USIABP,unknown,North
2017-06-06T01:00:28Z,1496710829,2017,1,0,157.042,157.042,81.93506,10.90252,1021.3,-999.00,-999.0,yes,no,no,300025060101040,IMB,AWI-USIABP,unknown,North
2017-06-06T01:59:31Z,1496714371,2017,2,0,157.083,157.083,81.93843,10.90547,1021.1,-999.00,-999.0,yes,no,no,300025060101040,IMB,AWI-USIABP,unknown,North
2017-06-06T03:00:00Z,1496718000,2017,3,0,157.125,157.125,81.94146,10.90891,1021.3,-999.00,-999.0,yes,no,no,300025060101040,IMB,AWI-USIABP,unknown,North
2017-06-06T04:00:28Z,1496721629,2017,4,0,157.167,157.167,81.94477,10.90664,1021.2,-999.00,-999.0,yes,no,no,300025060101040,IMB,AWI-USIABP,unknown,North
2017-06-06T04:59:31Z,1496725171,2017,5,0,157.208,157.208,81.94595,10.90706,1021.2,-999.00,-999.0,yes,no,no,300025060101040,IMB,AWI-USIABP,unknown,North
2017-06-06T06:00:00Z,1496728800,2017,6,0,157.25,157.25,81.94729,10.9022,1021.2,-999.00,-999.0,yes,no,no,300025060101040,IMB,AWI-USIABP,unknown,North
2017-06-06T07:00:28Z,1496732429,2017,7,0,157.292,157.292,81.94819,10.89553,1021.0,-999.00,-999.0,yes,no,no,300025060101040,IMB,AWI-USIABP,unknown,North
2017-06-06T09:00:00Z,1496739600,2017,9,0,157.375,157.375,81.94802,10.87384,1021.1,-999.00,-999.0,yes,no,no,300025060101040,IMB,AWI-USIABP,unknown,North
2017-06-06T10:00:28Z,1496743229,2017,10,0,157.417,157.417,81.94843,10.85632,1020.8,-999.00,-999.0,yes,no,no,300025060101040,IMB,AWI-USIABP,unknown,North
2017-06-06T10:59:31Z,1496746771,2017,11,0,157.458,157.458,81.94903,10.83403,1020.8,-999.00,-999.0,yes,no,no,300025060101040,IMB,AWI-USIABP,unknown,North
2017-06-06T12:00:00Z,1496750400,2017,12,0,157.5,157.5,81.94964,10.81649,1021.0,-999.00,-999.0,yes,no,no,300025060101040,IMB,AWI-USIABP,unknown,North
2017-06-06T13:00:28Z,1496754029,2017,13,0,157.542,157.542,81.9506,10.79355,1020.9,-999.00,-999.0,yes,no,no,300025060101040,IMB,AWI-USIABP,unknown,North
2017-06-06T13:59:31Z,1496757571,2017,14,0,157.583,157.583,81.95122,10.76543,1021.0,-999.00,-999.0,yes,no,no,300025060101040,IMB,AWI-USIABP,unknown,North
2017-06-06T15:00:00Z,1496761200,2017,15,0,157.625,157.625,81.95233,10.73558,1021.1,-999.00,-999.0,yes,no,no,300025060101040,IMB,AWI-USIABP,unknown,North
2017-06-06T16:00:28Z,1496764829,2017,16,0,157.667,157.667,81.95282,10.7013,1021.0,-999.00,-999.0,yes,no,no,300025060101040,IMB,AWI-USIABP,unknown,North
2017-06-06T16:59:31Z,1496768371,2017,17,0,157.708,157.708,81.95264,10.66486,1020.9,-999.00,-999.0,yes,no,no,300025060101040,IMB,AWI-USIABP,unknown,North
2017-06-06T19:59:31Z,1496779171,2017,20,0,157.833,157.833,81.95088,10.56303,1021.3,-999.00,-999.0,yes,no,no,300025060101040,IMB,AWI-USIABP,unknown,North
2017-06-06T21:00:00Z,1496782800,2017,21,0,157.875,157.875,81.95016,10.53372,1021.5,-999.00,-999.0,yes,no,no,300025060101040,IMB,AWI-USIABP,unknown,North
2017-06-06T22:59:31Z,1496789971,2017,23,0,157.958,157.958,81.94841,10.48248,1021.5,-999.00,-999.0,yes,no,no,300025060101040,IMB,AWI-USIABP,unknown,North
2017-06-07T00:00:00Z,1496793600,2017,0,0,158.0,158.0,81.94862,10.4558,1022.0,-999.00,-999.0,yes,no,no,300025060101040,IMB,AWI-USIABP,unknown,North
2017-06-07T01:00:28Z,1496797229,2017,1,0,158.042,158.042,81.94829,10.43601,1021.9,-999.00,-999.0,yes,no,no,300025060101040,IMB,AWI-USIABP,unknown,North
2017-06-07T03:00:00Z,1496804400,2017,3,0,158.125,158.125,81.94826,10.39124,1022.3,-999.00,-999.0,yes,no,no,300025060101040,IMB,AWI-USIABP,unknown,North
2017-06-07T04:00:28Z,1496808029,2017,4,0,158.167,158.167,81.94735,10.37228,1022.5,-999.00,-999.0,yes,no,no,300025060101040,IMB,AWI-USIABP,unknown,North
2017-06-07T06:00:00Z,1496815200,2017,6,0,158.25,158.25,81.94357,10.32723,1022.7,-999.00,-999.0,yes,no,no,300025060101040,IMB,AWI-USIABP,unknown,North
2017-06-07T07:00:28Z,1496818829,2017,7,0,158.292,158.292,81.94061,10.30132,1023.1,-999.00,-999.0,yes,no,no,300025060101040,IMB,AWI-USIABP,unknown,North
2017-06-07T07:59:31Z,1496822371,2017,8,0,158.333,158.333,81.93778,10.26955,1023.2,-999.00,-999.0,yes,no,no,300025060101040,IMB,AWI-USIABP,unknown,North
2017-06-07T09:00:00Z,1496826000,2017,9,0,158.375,158.375,81.9346,10.23665,1023.2,-999.00,-999.0,yes,no,no,300025060101040,IMB,AWI-USIABP,unknown,North
2017-06-07T10:00:28Z,1496829629,2017,10,0,158.417,158.417,81.9318,10.20184,1023.3,-999.00,-999.0,yes,no,no,300025060101040,IMB,AWI-USIABP,unknown,North
2017-06-07T10:59:31Z,1496833171,2017,11,0,158.458,158.458,81.92917,10.16799,1023.6,-999.00,-999.0,yes,no,no,300025060101040,IMB,AWI-USIABP,unknown,North
2017-06-07T12:00:00Z,1496836800,2017,12,0,158.5,158.5,81.92661,10.13462,1023.6,-999.00,-999.0,yes,no,no,300025060101040,IMB,AWI-USIABP,unknown,North
2017-06-07T13:00:28Z,1496840429,2017,13,0,158.542,158.542,81.92421,10.09929,1023.8,-999.00,-999.0,yes,no,no,300025060101040,IMB,AWI-USIABP,unknown,North
2017-06-07T13:59:31Z,1496843971,2017,14,0,158.583,158.583,81.92166,10.06446,1023.8,-999.00,-999.0,yes,no,no,300025060101040,IMB,AWI-USIABP,unknown,North
2017-06-07T15:00:00Z,1496847600,2017,15,0,158.625,158.625,81.91979,10.03093,1023.9,-999.00,-999.0,yes,no,no,300025060101040,IMB,AWI-USIABP,unknown,North
2017-06-07T16:00:28Z,1496851229,2017,16,0,158.667,158.667,81.91781,10.00131,1023.9,-999.00,-999.0,yes,no,no,300025060101040,IMB,AWI-USIABP,unknown,North
2017-06-07T16:59:31Z,1496854771,2017,17,0,158.708,158.708,81.91642,9.97192,1024.1,-999.00,-999.0,yes,no,no,300025060101040,IMB,AWI-USIABP,unknown,North
2017-06-07T18:00:00Z,1496858400,2017,18,0,158.75,158.75,81.91462,9.94291,1024.0,-999.00,-999.0,yes,no,no,300025060101040,IMB,AWI-USIABP,unknown,North
2017-06-07T19:00:28Z,1496862029,2017,19,0,158.792,158.792,81.91258,9.91755,1024.4,-999.00,-999.0,yes,no,no,300025060101040,IMB,AWI-USIABP,unknown,North
2017-06-07T19:59:31Z,1496865571,2017,20,0,158.833,158.833,81.91132,9.89366,1024.4,-999.00,-999.0,yes,no,no,300025060101040,IMB,AWI-USIABP,unknown,North
2017-06-07T22:00:28Z,1496872829,2017,22,0,158.917,158.917,81.90969,9.86317,1024.9,-999.00,-999.0,yes,no,no,300025060101040,IMB,AWI-USIABP,unknown,North
2017-06-07T23:00:57Z,1496876458,2017,23,1,158.959,158.959,81.90937,9.85516,1025.0,-999.00,-999.0,yes,no,no,300025060101040,IMB,AWI-USIABP,unknown,North
2017-06-08T01:00:28Z,1496883629,2017,1,0,159.042,159.042,81.90977,9.85947,1025.4,-999.00,-999.0,yes,no,no,300025060101040,IMB,AWI-USIABP,unknown,North
2017-06-08T01:59:31Z,1496887171,2017,2,0,159.083,159.083,81.9111,9.86044,1025.7,-999.00,-999.0,yes,no,no,300025060101040,IMB,AWI-USIABP,unknown,North
2017-06-08T03:00:00Z,1496890800,2017,3,0,159.125,159.125,81.91282,9.86325,1026.1,-999.00,-999.0,yes,no,no,300025060101040,IMB,AWI-USIABP,unknown,North
2017-06-08T04:00:28Z,1496894429,2017,4,0,159.167,159.167,81.91079,9.87394,1025.9,-999.00,-999.0,yes,no,no,300025060101040,IMB,AWI-USIABP,unknown,North
2017-06-08T06:00:00Z,1496901600,2017,6,0,159.25,159.25,81.90958,9.87201,1025.8,-999.00,-999.0,yes,no,no,300025060101040,IMB,AWI-USIABP,unknown,North
2018-02-09T16:59:31Z,1518195571,2018,17,0,40.708,40.708,53.5505,8.57104,1012.7,-999.00,-999.0,yes,no,no,300025060101040,IMB,AWI-USIABP,unknown,North
2018-02-09T19:00:28Z,1518202829,2018,19,0,40.792,40.792,53.54968,8.57047,1013.5,-999.00,-999.0,yes,no,no,300025060101040,IMB,AWI-USIABP,unknown,North
2018-02-09T22:00:28Z,1518213629,2018,22,1,40.917,40.917,53.55842,8.56149,1014.2,-999.00,-999.0,yes,no,no,300025060101040,IMB,AWI-USIABP,unknown,North
2018-02-10T03:01:26Z,1518231686,2018,3,1,41.126,41.126,53.54993,8.57073,1014.3,-999.00,-999.0,yes,no,no,300025060101040,IMB,AWI-USIABP,unknown,North
2018-02-10T04:00:28Z,1518235229,2018,4,1,41.167,41.167,53.55076,8.57096,1014.5,-999.00,-999.0,yes,no,no,300025060101040,IMB,AWI-USIABP,unknown,North
2018-02-10T05:00:57Z,1518238858,2018,5,1,41.209,41.209,53.54992,8.5698,1014.6,-999.00,-999.0,yes,no,no,300025060101040,IMB,AWI-USIABP,unknown,North
2018-02-10T07:00:28Z,1518246029,2018,7,1,41.292,41.292,53.55144,8.57125,1014.4,-999.00,-999.0,yes,no,no,300025060101040,IMB,AWI-USIABP,unknown,North
2018-02-10T11:00:57Z,1518260458,2018,11,1,41.459,41.459,53.54912,8.57054,1014.6,-999.00,-999.0,yes,no,no,300025060101040,IMB,AWI-USIABP,unknown,North
2018-02-10T14:00:57Z,1518271258,2018,14,1,41.584,41.584,53.55062,8.57094,1013.3,-999.00,-999.0,yes,no,no,300025060101040,IMB,AWI-USIABP,unknown,North
2018-02-10T15:00:00Z,1518274800,2018,15,0,41.625,41.625,53.5473,8.57414,1012.7,-999.00,-999.0,yes,no,no,300025060101040,IMB,AWI-USIABP,unknown,North
2018-02-10T18:00:00Z,1518285600,2018,18,0,41.75,41.75,53.54943,8.56783,1011.5,-999.00,-999.0,yes,no,no,300025060101040,IMB,AWI-USIABP,unknown,North
2018-02-10T21:00:00Z,1518296400,2018,21,0,41.875,41.875,53.54977,8.57039,1009.2,-999.00,-999.0,yes,no,no,300025060101040,IMB,AWI-USIABP,unknown,North
2018-02-10T22:04:48Z,1518300288,2018,22,5,41.92,41.92,53.54995,8.57038,1008.7,-999.00,-999.0,yes,no,no,300025060101040,IMB,AWI-USIABP,unknown,North
2018-02-10T23:00:57Z,1518303658,2018,23,1,41.959,41.959,53.55106,8.57305,1007.2,-999.00,-999.0,yes,no,no,300025060101040,IMB,AWI-USIABP,unknown,North
2018-02-11T01:59:31Z,1518314371,2018,2,0,42.083,42.083,53.55035,8.57099,1003.1,-999.00,-999.0,yes,no,no,300025060101040,IMB,AWI-USIABP,unknown,North
2018-02-11T04:00:28Z,1518321629,2018,4,0,42.167,42.167,53.55047,8.57155,999.4,-999.00,-999.0,yes,no,no,300025060101040,IMB,AWI-USIABP,unknown,North